1 Minute Report
Date Time Wind Direction Wind Speed Wind Gust Wind Variable Altimeter Temperature Dewpoint Relative Humidity Visibility Ceiling Precip Present Weather Density Alt Wind Chill Heat Index
17/07/27 06:37 000 00 N/A N/A 29.96 63(F), 17(C) 63(F), 17(C) 100% 10 SCT035 OVC045 N/A N/A N/A 63 F N/A 3185
17/07/27 06:36 000 00 N/A N/A 29.96 63(F), 17(C) 63(F), 17(C) 100% 10 SCT035 OVC045 N/A N/A N/A 63 F N/A 3184
17/07/27 06:35 000 00 N/A N/A 29.96 63(F), 17(C) 63(F), 17(C) 100% 10 SCT035 OVC045 N/A N/A N/A 63 F N/A 3183
17/07/27 06:34 000 00 N/A N/A 29.96 63(F), 17(C) 63(F), 17(C) 100% 10 SCT035 OVC045 N/A N/A N/A 63 F N/A 3182
17/07/27 06:33 000 00 N/A N/A 29.96 63(F), 17(C) 63(F), 17(C) 100% 10 SCT035 OVC045 N/A N/A N/A 63 F N/A 3181
17/07/27 06:32 000 00 N/A N/A 29.96 63(F), 17(C) 63(F), 17(C) 100% 10 SCT037 OVC045 N/A N/A N/A 63 F N/A 3180
17/07/27 06:31 000 00 N/A N/A 29.96 64(F), 18(C) 64(F), 18(C) 100% 10 SCT037 OVC045 N/A N/A N/A 64 F N/A 3179
17/07/27 06:30 000 00 N/A N/A 29.96 64(F), 18(C) 64(F), 18(C) 100% 10 SCT034 OVC045 N/A N/A N/A 64 F N/A 3178
17/07/27 06:29 000 00 N/A N/A 29.96 64(F), 18(C) 64(F), 18(C) 100% 10 SCT039 OVC045 N/A Light Drizzle N/A 64 F N/A 3177
17/07/27 06:28 000 00 N/A N/A 29.96 64(F), 18(C) 64(F), 18(C) 100% 7 SCT039 OVC045 N/A Light Rain N/A 64 F N/A 3176
17/07/27 06:27 000 00 N/A N/A 29.96 64(F), 18(C) 64(F), 18(C) 100% 7 SCT039 OVC045 N/A Light Rain N/A 64 F N/A 3175
17/07/27 06:26 000 00 N/A N/A 29.96 64(F), 18(C) 64(F), 18(C) 100% 7 OVC045 N/A Light Rain N/A 64 F N/A 3174
17/07/27 06:25 000 00 N/A N/A 29.96 64(F), 18(C) 64(F), 18(C) 100% 7 OVC045 N/A Light Rain N/A 64 F N/A 3173
17/07/27 06:24 000 00 N/A N/A 29.96 64(F), 18(C) 64(F), 18(C) 100% 7 OVC045 N/A Rain N/A 64 F N/A 3172
17/07/27 06:23 000 00 N/A N/A 29.96 64(F), 18(C) 64(F), 18(C) 100% 7 SCT025 SCT036 OVC045 N/A Rain N/A 64 F N/A 3171
17/07/27 06:22 000 00 N/A N/A 29.96 64(F), 18(C) 64(F), 18(C) 100% 5 SCT025 SCT034 OVC045 N/A Rain N/A 64 F N/A 3170
17/07/27 06:21 000 00 N/A N/A 29.96 64(F), 18(C) 64(F), 18(C) 100% 5 SCT025 SCT034 OVC045 N/A Rain N/A 64 F N/A 3169
17/07/27 06:20 000 00 N/A N/A 29.96 64(F), 18(C) 64(F), 18(C) 100% 5 SCT025 SCT034 OVC045 N/A Light Rain N/A 64 F N/A 3168
17/07/27 06:19 000 00 N/A N/A 29.96 64(F), 18(C) 64(F), 18(C) 100% 5 SCT025 SCT034 OVC045 N/A Light Rain N/A 64 F N/A 3167
17/07/27 06:18 000 00 N/A N/A 29.96 64(F), 18(C) 64(F), 18(C) 100% 5 SCT025 SCT034 OVC045 N/A Light Rain N/A 64 F N/A 3166
17/07/27 06:17 210 03 N/A N/A 29.96 64(F), 18(C) 64(F), 18(C) 100% 5 SCT025 SCT034 OVC045 N/A Light Rain N/A 64 F N/A 3165
17/07/27 06:16 200 03 N/A N/A 29.96 64(F), 18(C) 64(F), 18(C) 100% 5 SCT025 SCT034 OVC045 N/A Light Rain N/A 64 F N/A 3164
17/07/27 06:15 200 03 N/A N/A 29.96 64(F), 18(C) 64(F), 18(C) 100% 5 SCT025 SCT034 OVC047 N/A Light Rain N/A 64 F N/A 3163
17/07/27 06:14 200 03 N/A N/A 29.97 64(F), 18(C) 64(F), 18(C) 100% 5 SCT025 SCT034 OVC047 N/A Rain N/A 64 F N/A 3162
17/07/27 06:13 200 03 N/A N/A 29.97 64(F), 18(C) 64(F), 18(C) 100% 5 SCT025 SCT034 OVC047 N/A Rain N/A 64 F N/A 3161
17/07/27 06:12 210 03 N/A N/A 29.97 64(F), 18(C) 64(F), 18(C) 100% 5 SCT025 SCT034 OVC047 N/A Rain N/A 64 F N/A 3160
17/07/27 06:11 210 03 N/A N/A 29.97 64(F), 18(C) 64(F), 18(C) 100% 5 SCT025 SCT034 OVC047 N/A Rain N/A 64 F N/A 3159
17/07/27 06:10 220 03 N/A N/A 29.97 64(F), 18(C) 64(F), 18(C) 100% 5 SCT025 SCT034 OVC047 N/A Rain N/A 64 F N/A 3158
17/07/27 06:09 230 04 N/A N/A 29.97 64(F), 18(C) 64(F), 18(C) 100% 5 SCT025 SCT036 OVC047 N/A Rain N/A 64 F N/A 3157
17/07/27 06:08 230 04 N/A N/A 29.97 64(F), 18(C) 64(F), 18(C) 100% 5 SCT025 SCT036 OVC047 N/A Rain N/A 64 F N/A 3156
17/07/27 06:07 230 04 N/A N/A 29.97 64(F), 18(C) 64(F), 18(C) 100% 5 SCT025 SCT036 OVC047 N/A Heavy Rain N/A 64 F N/A 3155
17/07/27 06:06 240 04 N/A N/A 29.98 64(F), 18(C) 64(F), 18(C) 100% 5 SCT025 SCT031 OVC047 N/A Heavy Rain N/A 64 F N/A 3154
17/07/27 06:05 250 05 N/A N/A 29.98 64(F), 18(C) 64(F), 18(C) 100% 5 SCT025 SCT031 OVC047 N/A Heavy Rain N/A 64 F N/A 3153
17/07/27 06:04 250 05 N/A N/A 29.98 64(F), 18(C) 64(F), 18(C) 100% 5 SCT025 SCT031 OVC047 N/A Heavy Rain N/A 64 F N/A 3152
17/07/27 06:03 250 05 N/A N/A 29.98 64(F), 18(C) 64(F), 18(C) 100% 7 SCT027 SCT036 OVC047 N/A Rain N/A 64 F N/A 3151
17/07/27 06:02 260 06 N/A N/A 29.98 64(F), 18(C) 64(F), 18(C) 100% 7 SCT027 SCT036 OVC047 N/A Rain N/A 64 F N/A 3150
17/07/27 06:01 260 06 N/A N/A 29.98 64(F), 18(C) 64(F), 18(C) 100% 7 SCT027 SCT036 OVC047 N/A Rain N/A 64 F N/A 3149
17/07/27 06:00 260 05 N/A N/A 29.98 64(F), 18(C) 64(F), 18(C) 100% 7 SCT027 SCT033 OVC049 N/A Rain N/A 64 F N/A 3148
17/07/27 05:59 260 05 N/A N/A 29.98 64(F), 18(C) 64(F), 18(C) 100% 7 SCT027 SCT033 OVC049 N/A Rain N/A 64 F N/A 3147
17/07/27 05:58 260 05 N/A N/A 29.98 64(F), 18(C) 64(F), 18(C) 100% 7 SCT027 SCT033 OVC049 N/A Rain N/A 64 F N/A 3146
17/07/27 05:57 260 06 N/A N/A 29.98 64(F), 18(C) 64(F), 18(C) 100% 10 SCT027 SCT033 OVC049 N/A Rain N/A 64 F N/A 3145
17/07/27 05:56 260 06 N/A N/A 29.98 64(F), 18(C) 64(F), 18(C) 100% 10 SCT027 SCT033 OVC049 N/A Light Rain N/A 64 F N/A 3144
17/07/27 05:55 260 06 N/A N/A 29.98 64(F), 18(C) 64(F), 18(C) 100% 10 SCT027 SCT033 OVC049 N/A Light Rain N/A 64 F N/A 3143
17/07/27 05:54 270 06 N/A N/A 29.98 64(F), 18(C) 64(F), 18(C) 100% 10 SCT029 BKN049 OVC060 N/A Light Rain N/A 64 F N/A 3142
17/07/27 05:53 270 06 N/A N/A 29.98 64(F), 18(C) 64(F), 18(C) 100% 10 SCT029 BKN049 OVC060 N/A Light Rain N/A 64 F N/A 3141
17/07/27 05:52 260 06 N/A N/A 29.98 64(F), 18(C) 64(F), 18(C) 100% 10 SCT029 BKN049 OVC060 N/A Light Rain N/A 64 F N/A 3140
17/07/27 05:51 260 06 N/A N/A 29.98 64(F), 18(C) 64(F), 18(C) 100% 10 SCT042 BKN049 OVC060 N/A Light Rain N/A 64 F N/A 3139
17/07/27 05:50 260 05 N/A N/A 29.98 64(F), 18(C) 64(F), 18(C) 100% 10 SCT042 BKN049 OVC060 N/A Light Rain N/A 64 F N/A 3138
17/07/27 05:49 260 05 N/A N/A 29.98 64(F), 18(C) 64(F), 18(C) 100% 7 SCT042 OVC049 N/A Light Rain N/A 64 F N/A 3137
17/07/27 05:48 260 05 N/A N/A 29.98 65(F), 18(C) 65(F), 18(C) 100% 7 SCT036 BKN049 OVC055 N/A Light Rain N/A 65 F N/A 3136
17/07/27 05:47 260 05 N/A N/A 29.98 65(F), 18(C) 65(F), 18(C) 100% 7 SCT039 OVC049 N/A Light Rain N/A 65 F N/A 3135
17/07/27 05:46 260 05 N/A N/A 29.98 65(F), 18(C) 65(F), 18(C) 100% 7 SCT042 OVC049 N/A Light Rain N/A 65 F N/A 3134
17/07/27 05:45 250 06 N/A N/A 29.98 64(F), 18(C) 64(F), 18(C) 100% 7 SCT042 BKN049 OVC060 N/A Light Rain N/A 64 F N/A 3133
17/07/27 05:44 250 06 N/A N/A 29.98 64(F), 18(C) 64(F), 18(C) 100% 7 SCT042 OVC060 N/A Light Rain N/A 64 F N/A 3132
17/07/27 05:43 250 06 N/A N/A 29.98 64(F), 18(C) 64(F), 18(C) 100% 7 SCT037 SCT045 OVC060 N/A Light Rain N/A 64 F N/A 3131
17/07/27 05:42 250 07 N/A N/A 29.98 64(F), 18(C) 64(F), 18(C) 100% 7 SCT040 OVC060 N/A Light Rain N/A 64 F N/A 3130
17/07/27 05:41 260 08 N/A N/A 29.98 64(F), 18(C) 64(F), 18(C) 100% 7 SCT040 SCT047 OVC060 N/A Light Rain N/A 63 F N/A 3129
17/07/27 05:40 250 07 N/A N/A 29.98 65(F), 18(C) 65(F), 18(C) 100% 7 SCT040 SCT047 OVC060 N/A Light Rain N/A 65 F N/A 3128
17/07/27 05:39 250 06 N/A N/A 29.98 65(F), 18(C) 65(F), 18(C) 100% 7 SCT040 SCT045 OVC060 N/A Light Rain N/A 65 F N/A 3127
17/07/27 05:38 250 06 N/A N/A 29.98 65(F), 18(C) 65(F), 18(C) 100% 7 SCT040 SCT045 OVC060 N/A Light Rain N/A 65 F N/A 3126
17/07/27 05:37 250 05 N/A N/A 29.98 65(F), 18(C) 65(F), 18(C) 100% 7 SCT045 OVC060 N/A Rain N/A 65 F N/A 3125
17/07/27 05:36 250 05 N/A N/A 29.98 65(F), 18(C) 65(F), 18(C) 100% 10 SCT045 OVC060 N/A Rain N/A 65 F N/A 3124
17/07/27 05:35 250 05 N/A N/A 29.98 65(F), 18(C) 65(F), 18(C) 100% 10 SCT045 OVC060 N/A Rain N/A 65 F N/A 3123
17/07/27 05:34 250 05 N/A N/A 29.98 65(F), 18(C) 65(F), 18(C) 100% 10 SCT045 OVC060 N/A Rain N/A 65 F N/A 3122
17/07/27 05:33 260 05 N/A N/A 29.98 65(F), 18(C) 65(F), 18(C) 100% 10 SCT045 OVC060 N/A Rain N/A 65 F N/A 3121
17/07/27 05:32 260 06 N/A N/A 29.98 65(F), 18(C) 65(F), 18(C) 100% 10 BKN060 OVC070 N/A Rain N/A 65 F N/A 3120
17/07/27 05:31 250 06 N/A N/A 29.98 65(F), 18(C) 65(F), 18(C) 100% 10 OVC060 N/A Rain N/A 65 F N/A 3119
17/07/27 05:30 250 06 N/A N/A 29.97 65(F), 18(C) 65(F), 18(C) 100% 10 OVC060 N/A Light Rain N/A 65 F N/A 3118
17/07/27 05:29 250 05 N/A N/A 29.97 65(F), 18(C) 65(F), 18(C) 100% 10 OVC060 N/A Light Rain N/A 65 F N/A 3117
17/07/27 05:28 250 05 N/A N/A 29.97 65(F), 18(C) 65(F), 18(C) 100% 10 OVC060 N/A Light Rain N/A 65 F N/A 3116
17/07/27 05:27 240 05 N/A N/A 29.98 65(F), 18(C) 65(F), 18(C) 100% 10 OVC060 N/A Light Rain N/A 65 F N/A 3115
17/07/27 05:26 240 05 N/A N/A 29.98 65(F), 18(C) 65(F), 18(C) 100% 10 OVC060 N/A Light Rain N/A 65 F N/A 3114
17/07/27 05:25 240 04 N/A N/A 29.98 65(F), 18(C) 65(F), 18(C) 100% 10 OVC070 N/A Light Rain N/A 65 F N/A 3113
17/07/27 05:24 240 04 N/A N/A 29.98 65(F), 18(C) 65(F), 18(C) 100% 10 BKN065 OVC070 N/A Light Rain N/A 65 F N/A 3112
17/07/27 05:23 240 05 N/A N/A 29.98 65(F), 18(C) 65(F), 18(C) 100% 10 BKN065 OVC070 N/A Light Rain N/A 65 F N/A 3111
17/07/27 05:22 240 05 N/A N/A 29.98 65(F), 18(C) 65(F), 18(C) 100% 10 OVC065 N/A Light Rain N/A 65 F N/A 3110
17/07/27 05:21 240 05 N/A N/A 29.98 66(F), 19(C) 65(F), 18(C) 93% 10 OVC065 N/A Light Rain N/A 67 F N/A 3109
17/07/27 05:20 250 04 N/A N/A 29.98 66(F), 19(C) 65(F), 18(C) 93% 10 OVC065 N/A Rain N/A 66 F N/A 3108
17/07/27 05:19 250 04 N/A N/A 29.98 66(F), 19(C) 65(F), 18(C) 93% 10 OVC065 N/A Rain N/A 66 F N/A 3107
17/07/27 05:18 250 05 N/A N/A 29.98 66(F), 19(C) 65(F), 18(C) 93% 10 OVC065 N/A Rain N/A 67 F N/A 3106
17/07/27 05:17 240 04 N/A N/A 29.98 66(F), 19(C) 65(F), 18(C) 93% 10 OVC065 N/A Rain N/A 66 F N/A 3105
17/07/27 05:16 240 04 N/A N/A 29.98 66(F), 19(C) 65(F), 18(C) 93% 10 OVC065 N/A Rain N/A 66 F N/A 3104
17/07/27 05:15 240 05 N/A N/A 29.98 66(F), 19(C) 65(F), 18(C) 93% 10 OVC065 N/A Rain N/A 67 F N/A 3103
17/07/27 05:14 240 05 N/A N/A 29.98 66(F), 19(C) 65(F), 18(C) 93% 10 OVC065 N/A Light Rain N/A 67 F N/A 3102
17/07/27 05:13 240 05 N/A N/A 29.98 66(F), 19(C) 65(F), 18(C) 93% 10 OVC065 N/A N/A N/A 67 F N/A 3101
17/07/27 05:12 240 05 N/A N/A 29.98 66(F), 19(C) 65(F), 18(C) 93% 10 OVC065 N/A N/A N/A 67 F N/A 3100
17/07/27 05:11 240 05 N/A N/A 29.98 66(F), 19(C) 65(F), 18(C) 93% 10 OVC065 N/A N/A N/A 67 F N/A 3099
17/07/27 05:10 230 05 N/A N/A 29.98 66(F), 19(C) 65(F), 18(C) 93% 10 OVC065 N/A N/A N/A 67 F N/A 3098
17/07/27 05:09 240 05 N/A N/A 29.98 66(F), 19(C) 65(F), 18(C) 93% 10 OVC065 N/A N/A N/A 67 F N/A 3097
17/07/27 05:08 250 05 N/A N/A 29.98 66(F), 19(C) 65(F), 18(C) 93% 10 OVC065 N/A N/A N/A 67 F N/A 3096
17/07/27 05:07 250 05 N/A N/A 29.98 66(F), 19(C) 65(F), 18(C) 93% 10 BKN065 OVC080 N/A N/A N/A 67 F N/A 3095
17/07/27 05:06 250 04 N/A N/A 29.98 66(F), 19(C) 65(F), 18(C) 93% 10 SCT044 OVC065 N/A N/A N/A 66 F N/A 3094
17/07/27 05:05 250 04 N/A N/A 29.98 66(F), 19(C) 65(F), 18(C) 93% 10 SCT044 OVC065 N/A N/A N/A 66 F N/A 3093
17/07/27 05:04 250 04 N/A N/A 29.98 66(F), 19(C) 65(F), 18(C) 93% 10 SCT044 OVC065 N/A N/A N/A 66 F N/A 3092
17/07/27 05:03 250 05 N/A N/A 29.98 66(F), 19(C) 65(F), 18(C) 93% 10 SCT044 OVC065 N/A N/A N/A 67 F N/A 3091
17/07/27 05:02 250 05 N/A N/A 29.98 66(F), 19(C) 64(F), 18(C) 93% 10 SCT044 BKN065 OVC080 N/A Light Rain N/A 67 F N/A 3090
17/07/27 05:01 250 05 N/A N/A 29.98 66(F), 19(C) 64(F), 18(C) 93% 10 SCT044 BKN065 OVC080 N/A Light Rain N/A 67 F N/A 3089
17/07/27 05:00 240 04 N/A N/A 29.98 66(F), 19(C) 64(F), 18(C) 93% 10 SCT044 BKN065 OVC080 N/A Light Rain N/A 66 F N/A 3088
17/07/27 04:59 240 04 N/A N/A 29.98 66(F), 19(C) 64(F), 18(C) 93% 10 SCT044 BKN065 OVC080 N/A Light Rain N/A 66 F N/A 3087
17/07/27 04:58 240 05 N/A N/A 29.98 66(F), 19(C) 64(F), 18(C) 93% 10 SCT044 BKN065 OVC080 N/A Light Rain N/A 67 F N/A 3086
17/07/27 04:57 240 06 N/A N/A 29.98 66(F), 19(C) 64(F), 18(C) 93% 10 SCT044 BKN065 OVC080 N/A Light Rain N/A 66 F N/A 3085
17/07/27 04:56 250 05 N/A N/A 29.98 66(F), 19(C) 64(F), 18(C) 93% 10 SCT044 BKN065 OVC080 N/A Light Rain N/A 67 F N/A 3084
17/07/27 04:55 250 05 N/A N/A 29.98 66(F), 19(C) 64(F), 18(C) 93% 10 SCT044 BKN065 OVC080 N/A Light Rain N/A 67 F N/A 3083
17/07/27 04:54 250 05 N/A N/A 29.98 66(F), 19(C) 64(F), 18(C) 93% 10 SCT046 BKN065 OVC080 N/A Light Rain N/A 67 F N/A 3082
17/07/27 04:53 240 05 N/A N/A 29.98 66(F), 19(C) 64(F), 18(C) 93% 10 BKN065 BKN080 OVC110 N/A Light Rain N/A 67 F N/A 3081
17/07/27 04:52 240 04 N/A N/A 29.98 66(F), 19(C) 64(F), 18(C) 93% 10 BKN065 BKN080 OVC110 N/A Light Rain N/A 66 F N/A 3080
17/07/27 04:51 230 04 N/A N/A 29.98 66(F), 19(C) 64(F), 18(C) 93% 10 BKN065 BKN080 OVC110 N/A N/A N/A 66 F N/A 3079
17/07/27 04:50 240 05 N/A N/A 29.98 66(F), 19(C) 64(F), 18(C) 93% 10 BKN065 BKN080 OVC110 N/A N/A N/A 67 F N/A 3078
17/07/27 04:49 240 05 N/A N/A 29.98 66(F), 19(C) 64(F), 18(C) 93% 10 SCT065 BKN080 OVC110 N/A N/A N/A 67 F N/A 3077
17/07/27 04:48 240 04 N/A N/A 29.98 66(F), 19(C) 64(F), 18(C) 93% 10 SCT065 BKN080 OVC110 N/A Light Rain N/A 66 F N/A 3076
17/07/27 04:47 240 05 N/A N/A 29.98 66(F), 19(C) 64(F), 18(C) 93% 10 SCT065 OVC080 N/A Light Rain N/A 67 F N/A 3075
17/07/27 04:46 240 05 N/A N/A 29.98 66(F), 19(C) 64(F), 18(C) 93% 10 SCT065 OVC080 N/A Light Rain N/A 67 F N/A 3074
17/07/27 04:45 240 05 N/A N/A 29.98 66(F), 19(C) 64(F), 18(C) 93% 10 SCT065 OVC080 N/A Light Rain N/A 67 F N/A 3073
17/07/27 04:44 240 05 N/A N/A 29.98 66(F), 19(C) 64(F), 18(C) 93% 10 SCT065 BKN080 OVC110 N/A Light Rain N/A 67 F N/A 3072
17/07/27 04:43 230 05 N/A N/A 29.98 66(F), 19(C) 64(F), 18(C) 93% 10 SCT065 BKN080 OVC110 N/A Light Rain N/A 67 F N/A 3071
17/07/27 04:42 230 05 N/A N/A 29.98 66(F), 19(C) 64(F), 18(C) 93% 10 BKN065 BKN080 OVC110 N/A Light Rain N/A 67 F N/A 3070
17/07/27 04:41 230 06 N/A N/A 29.98 66(F), 19(C) 64(F), 18(C) 93% 10 SCT065 BKN080 OVC110 N/A Light Rain N/A 66 F N/A 3069
17/07/27 04:40 230 06 N/A N/A 29.98 66(F), 19(C) 64(F), 18(C) 93% 10 SCT065 BKN080 OVC110 N/A Light Rain N/A 66 F N/A 3068
17/07/27 04:39 230 05 N/A N/A 29.97 66(F), 19(C) 64(F), 18(C) 93% 10 SCT065 BKN080 OVC110 N/A Light Rain N/A 67 F N/A 3067
17/07/27 04:38 230 05 N/A N/A 29.97 66(F), 19(C) 64(F), 18(C) 93% 10 SCT065 BKN080 OVC110 N/A Light Rain N/A 67 F N/A 3066
17/07/27 04:37 230 05 N/A N/A 29.97 66(F), 19(C) 64(F), 18(C) 93% 10 BKN065 BKN080 OVC110 N/A Light Rain N/A 67 F N/A 3065